Tracking 23760 objects as of 28-Oct-2021
HD Live streaming from Space Station
objects crossing your sky now

SPACEBEENZ-7

Track SPACEBEENZ-7 now!
10-day predictions


NORAD ID: 48889
Int'l Code: 2021-059L
Perigee: 528.6 km
Apogee: 541.5 km
Inclination: 97.5 °
Period: 95.2 minutes
Semi major axis: 6906 km
RCS: Unknown
Launch date: June 30, 2021
Source: New Zealand (NZ)
Launch site: AIR FORCE EASTERN TEST RANGE (AFETR)
aabbcc
Your satellite tracking list
Your tracking list is empty




NASA's NSSDC Master Catalog

Two Line Element Set (TLE):
1 48889U 21059L   21300.29386581  .00006009  00000-0  34643-3 0  9990
2 48889  97.5306  67.3340 0009386 183.1067 177.0107 15.12714086 18663
Source of the keplerian elements: AFSPC